Mojave, CA

1:18 AM PDT on May 29, 2017 (GMT -0700)
Mojave

Weather History for KMHV - August, 2013

Change the Weather History Date:

Saturday, August 24, 2013

  Actual Average Record
Temperature  
Mean Temperature 80 °F -  
Max Temperature 93 °F 93 °F 102 °F (1964)
Min Temperature 68 °F 64 °F 55 °F (1983)
Cooling Degree Days 16    
Growing Degree Days 30 (Base 50)    
Moisture  
Dew Point 34 °F    
Average Humidity 22    
Maximum Humidity 35    
Minimum Humidity 5    
Precipitation  
Precipitation 0.00 in - - ()
Sea Level Pressure  
Sea Level Pressure 29.90 in    
Wind  
Wind Speed 9 mph (WSW)    
Max Wind Speed 20 mph    
Max Gust Speed 28 mph    
Visibility 10 miles    
Events      
Averages and records for this station are not official NWS values.
T = Trace of Precipitation, MM = Missing Value Source: NWS Daily Summary

Daily Weather History Graph

Daily Weather History Graph

Search for Another Location

Airport or City:

Trip Planner

Search our weather history database for the weather conditions in past years. The results will help you decide how hot, cold, wet, or windy it might be!

Date:

Astronomy

Aug. 24, 2013 Rise Set
Actual Time 6:19 AM PDT 7:29 PM PDT
Civil Twilight 5:53 AM PDT 7:55 PM PDT
Nautical Twilight 5:22 AM PDT 8:26 PM PDT
Astronomical Twilight 4:49 AM PDT 8:59 PM PDT
Moon 9:39 PM PDT (8/24) 10:12 AM PDT (8/24)
Length of Visible Light 14h 02m
Length of Day
13h 09m
Waning Gibbous, 83% of the Moon is Illuminated
Aug 24
Waning Gibbous
Aug 28
Last Quarter
Sep 5
New
Sep 12
First Quarter
Sep 19
Full

Hourly Weather History & Observations

Time (PDT) Temp. Dew Point Humidity Pressure Visibility Wind Dir Wind Speed Gust Speed Precip Events Conditions
12:15 AM 75.2 °F 37.4 °F 25% 29.88 in 10.0 mi SW 8.1 mph 17.3 mph N/A   Clear
12:35 AM 75.2 °F 41.0 °F 29% 29.89 in 10.0 mi SW 15.0 mph - N/A   Clear
12:55 AM 73.4 °F 41.0 °F 31% 29.89 in 10.0 mi WSW 9.2 mph - N/A   Clear
1:15 AM 73.4 °F 42.8 °F 33% 29.89 in 10.0 mi West 8.1 mph - N/A   Clear
1:35 AM 73.4 °F 37.4 °F 27% 29.89 in 10.0 mi WNW 9.2 mph - N/A   Clear
1:55 AM 73.4 °F 39.2 °F 29% 29.89 in 10.0 mi WNW 10.4 mph - N/A   Clear
2:15 AM 73.4 °F 39.2 °F 29% 29.88 in 10.0 mi WNW 11.5 mph - N/A   Clear
2:35 AM 73.4 °F 37.4 °F 27% 29.89 in 10.0 mi Calm Calm - N/A   Clear
2:55 AM 71.6 °F 39.2 °F 31% 29.88 in 10.0 mi Calm Calm - N/A   Clear
3:15 AM 71.6 °F 39.2 °F 31% 29.89 in 10.0 mi SW 6.9 mph - N/A   Clear
3:35 AM 73.4 °F 37.4 °F 27% 29.89 in 10.0 mi WSW 9.2 mph - N/A   Clear
3:55 AM 73.4 °F 37.4 °F 27% 29.89 in 10.0 mi West 5.8 mph - N/A   Clear
4:15 AM 69.8 °F 39.2 °F 33% 29.89 in 10.0 mi WSW 6.9 mph - N/A   Clear
4:35 AM 68.0 °F 39.2 °F 35% 29.89 in 10.0 mi WSW 4.6 mph - N/A   Clear
4:55 AM 68.0 °F 39.2 °F 35% 29.89 in 10.0 mi West 6.9 mph - N/A   Clear
5:15 AM 68.0 °F 37.4 °F 33% 29.90 in 10.0 mi West 3.5 mph - N/A   Clear
5:35 AM 69.8 °F 39.2 °F 33% 29.90 in 10.0 mi WNW 5.8 mph - N/A   Clear
5:55 AM 68.0 °F 39.2 °F 35% 29.90 in 10.0 mi West 4.6 mph - N/A   Clear
6:15 AM 68.0 °F 39.2 °F 35% 29.90 in 10.0 mi NW 6.9 mph - N/A   Clear
6:35 AM 68.0 °F 37.4 °F 33% 29.91 in 10.0 mi Calm Calm - N/A   Clear
6:55 AM 69.8 °F 39.2 °F 33% 29.91 in 10.0 mi Calm Calm - N/A   Clear
7:15 AM 69.8 °F 41.0 °F 35% 29.91 in 10.0 mi Calm Calm - N/A   Clear
7:35 AM 71.6 °F 41.0 °F 33% 29.91 in 10.0 mi Calm Calm - N/A   Clear
7:55 AM 73.4 °F 41.0 °F 31% 29.91 in 10.0 mi Calm Calm - N/A   Clear
8:15 AM 75.2 °F 41.0 °F 29% 29.92 in 10.0 mi Calm Calm - N/A   Clear
8:35 AM 77.0 °F 41.0 °F 28% 29.92 in 10.0 mi Calm Calm - N/A   Clear
8:55 AM 77.0 °F 41.0 °F 28% 29.92 in 10.0 mi East 5.8 mph - N/A   Clear
9:15 AM 78.8 °F 41.0 °F 26% 29.93 in 10.0 mi ESE 6.9 mph - N/A   Clear
9:35 AM 80.6 °F 41.0 °F 24% 29.93 in 10.0 mi ESE 5.8 mph - N/A   Clear
9:55 AM 80.6 °F 39.2 °F 23% 29.93 in 10.0 mi SSE 6.9 mph - N/A   Clear
10:15 AM 82.4 °F 35.6 °F 19% 29.93 in 10.0 mi SE 4.6 mph - N/A   Clear
10:35 AM 84.2 °F 32.0 °F 15% 29.93 in 10.0 mi SSW 8.1 mph - N/A   Clear
10:55 AM 86.0 °F 30.2 °F 13% 29.93 in 10.0 mi South 6.9 mph - N/A   Clear
11:15 AM 86.0 °F 26.6 °F 12% 29.92 in 10.0 mi South 8.1 mph - N/A   Clear
11:35 AM 87.8 °F 24.8 °F 10% 29.92 in 10.0 mi SSE 6.9 mph - N/A   Clear
11:55 AM 87.8 °F 24.8 °F 10% 29.92 in 10.0 mi SW 9.2 mph - N/A   Clear
12:15 PM 89.6 °F 19.4 °F 8% 29.92 in 10.0 mi SSW 9.2 mph - N/A   Clear
12:35 PM 89.6 °F 21.2 °F 8% 29.91 in 10.0 mi SW 13.8 mph 19.6 mph N/A   Clear
12:55 PM 89.6 °F 19.4 °F 8% 29.91 in 10.0 mi SW 15.0 mph 18.4 mph N/A   Clear
1:15 PM 91.4 °F 15.8 °F 6% 29.90 in 10.0 mi SSW 10.4 mph 19.6 mph N/A   Clear
1:35 PM 91.4 °F 17.6 °F 7% 29.89 in 10.0 mi South 12.7 mph 18.4 mph N/A   Clear
1:55 PM 91.4 °F 15.8 °F 6% 29.89 in 10.0 mi SSW 16.1 mph 19.6 mph N/A   Clear
2:15 PM 93.2 °F 15.8 °F 6% 29.88 in 10.0 mi SSW 15.0 mph 27.6 mph N/A   Clear
2:35 PM 93.2 °F 14.0 °F 5% 29.87 in 10.0 mi SW 19.6 mph 26.5 mph N/A   Clear
2:55 PM 93.2 °F 15.8 °F 6% 29.86 in 10.0 mi SSW 12.7 mph - N/A   Clear
3:15 PM 93.2 °F 15.8 °F 6% 29.85 in 10.0 mi SSW 12.7 mph 20.7 mph N/A   Clear
3:35 PM 93.2 °F 14.0 °F 5% 29.84 in 10.0 mi SSW 12.7 mph 19.6 mph N/A   Clear
3:55 PM 93.2 °F 12.2 °F 5% 29.84 in 10.0 mi SSW 10.4 mph 17.3 mph N/A   Clear
4:15 PM 93.2 °F 15.8 °F 6% 29.83 in 10.0 mi South 15.0 mph 21.9 mph N/A   Clear
4:35 PM 93.2 °F 32.0 °F 11% 29.83 in 10.0 mi West 8.1 mph 19.6 mph N/A   Clear
4:55 PM 93.2 °F 35.6 °F 13% 29.83 in 10.0 mi West 16.1 mph - N/A   Clear
5:15 PM 91.4 °F 35.6 °F 14% 29.84 in 10.0 mi West 15.0 mph 20.7 mph N/A   Clear
5:35 PM 91.4 °F 37.4 °F 15% 29.84 in 10.0 mi West 13.8 mph 20.7 mph N/A   Clear
5:55 PM 91.4 °F 37.4 °F 15% 29.84 in 10.0 mi WNW 15.0 mph 21.9 mph N/A   Clear
6:15 PM 89.6 °F 41.0 °F 18% 29.85 in 10.0 mi West 17.3 mph - N/A   Clear
6:35 PM 86.0 °F 41.0 °F 20% 29.85 in 10.0 mi West 17.3 mph - N/A   Clear
6:55 PM 86.0 °F 41.0 °F 20% 29.86 in 10.0 mi West 16.1 mph 20.7 mph N/A   Clear
7:15 PM 84.2 °F 41.0 °F 22% 29.87 in 10.0 mi West 16.1 mph 20.7 mph N/A   Clear
7:35 PM 82.4 °F 41.0 °F 23% 29.88 in 10.0 mi West 15.0 mph 21.9 mph N/A   Clear
7:55 PM 82.4 °F 39.2 °F 21% 29.88 in 10.0 mi West 19.6 mph 26.5 mph N/A   Clear
8:15 PM 80.6 °F 39.2 °F 23% 29.90 in 10.0 mi WSW 11.5 mph - N/A   Clear
8:35 PM 80.6 °F 39.2 °F 23% 29.91 in 10.0 mi WSW 13.8 mph - N/A   Clear
8:55 PM 78.8 °F 39.2 °F 24% 29.93 in 10.0 mi SW 8.1 mph - N/A   Clear
9:15 PM 78.8 °F 41.0 °F 26% 29.94 in 10.0 mi WSW 8.1 mph - N/A   Clear
9:35 PM 77.0 °F 41.0 °F 28% 29.94 in 10.0 mi WSW 9.2 mph - N/A   Clear
9:55 PM 75.2 °F 41.0 °F 29% 29.94 in 10.0 mi West 10.4 mph - N/A   Clear
10:15 PM 75.2 °F 41.0 °F 29% 29.95 in 10.0 mi West 8.1 mph - N/A   Clear
10:35 PM 73.4 °F 41.0 °F 31% 29.95 in 10.0 mi WSW 8.1 mph - N/A   Clear
10:55 PM 73.4 °F 41.0 °F 31% 29.95 in 10.0 mi West 9.2 mph - N/A   Clear
11:15 PM 73.4 °F 41.0 °F 31% 29.95 in 10.0 mi West 10.4 mph - N/A   Clear
11:35 PM 73.4 °F 41.0 °F 31% 29.95 in 10.0 mi WSW 11.5 mph - N/A   Clear
11:55 PM 75.2 °F 41.0 °F 29% 29.95 in 10.0 mi West 10.4 mph - N/A   Clear